Location: Bijele Vode
(45.2833°N, 16.2000°E)
Time: 20:48:02
(UTC+00:00)

USA 238 DEB - Pass Details

Date: 18 September 2020
Orbit: 1004 x 1208 km, 63.4° (Epoch: 28 October)

Event Time Altitude Azimuth Distance (km) Brightness Sun altitude
Rises 19:33:52 0° 320° (NW) 3,957 7.8 -26.4°
Reaches altitude 10° 19:36:32 10° 318° (NW) 3,023 7.0 -26.8°
Maximum altitude 19:43:41 66° 238° (WSW) 1,267 4.0 -27.9°
Enters shadow 19:45:40 49° 180° (S) 1,486 4.1 -28.2°
